sat.trackr.live / text

‹ back to catalog

STARLINK-11418 [DTC]

NORAD 63058 · 2025-035G

PAYLOAD ACTIVE UNKNOWN

§ Identity

Operator
Country
US
Launch date
2025-02-21
Launch site
AFETR
Launch vehicle
Mass (kg)
RCS (m²)

Purposes: comms

External: N2YO · Heavens-Above · Gunter

§ Orbital elements

Epoch: 2026-05-24T18:43:19.078752Z

Period
91.67 min
Inclination
43.0005°
Eccentricity
0.0002829
Mean motion
15.70842292 rev/d
Perigee alt
354.6 km
Apogee alt
358.4 km
Semi-major
6,734.6 km
B*
1.1826e-3
RAAN
277.0757°
Arg perigee
247.2685°
Mean anomaly
112.7884°
Rev number
7,306

§ Raw data

STARLINK-11418 [DTC]1 63058U 25035G   26144.78008193  .00154177  00000+0  11826-2 0  99942 63058  43.0005 277.0757 0002829 247.2685 112.7884 15.70842292 73063

JSON: /api/v1/satellites/63058 · /tle

For live sub-satellite position, see the globe view (requires WebGL).

§ Visibility from observer

Set your observer location to see the next 7 days of passes ≥ 10°. The values pass through the URL so the page stays shareable.

No JS? Fill the form by hand. The geolocation button needs JavaScript.